| time (UTC) | temp F | wind direction | speed MPH | gust MPH | rain 1hr in | rain 24hr in | rain mn in | humidity % | barometer mb |
| 20260831041501 | 71 | 289 | 0.0 | 0.0 | 0.00 | 0.66 | 0.38 | 59 | 1014.7 |
| 20260831040004 | 72 | 288 | 0.0 | 0.0 | 0.00 | 0.66 | 0.38 | 59 | 1014.7 |
| 20260831034501 | 72 | 288 | 0.0 | 0.0 | 0.00 | 0.66 | 0.38 | 58 | 1014.5 |
| 20260831033003 | 72 | 288 | 0.0 | 0.0 | 0.00 | 0.66 | 0.38 | 57 | 1014.4 |
| 20260831031501 | 73 | 288 | 0.0 | 3.0 | 0.00 | 0.66 | 0.38 | 57 | 1014.2 |
| 20260831030004 | 73 | 288 | 0.0 | 0.0 | 0.00 | 0.66 | 0.38 | 58 | 1013.9 |
| 20260831024501 | 73 | 287 | 1.0 | 3.0 | 0.00 | 0.66 | 0.38 | 57 | 1013.6 |
| 20260831023005 | 73 | 282 | 0.0 | 2.0 | 0.00 | 0.66 | 0.38 | 58 | 1013.5 |
| 20260831021500 | 74 | 360 | 0.0 | 1.0 | 0.00 | 0.66 | 0.38 | 55 | 1013.3 |
| 20260831014500 | 76 | 360 | 0.0 | 3.0 | 0.00 | 0.66 | 0.38 | 49 | 1013.0 |
| 20260831013002 | 78 | 360 | 1.0 | 6.0 | 0.00 | 0.66 | 0.38 | 48 | 1013.0 |
| 20260831011500 | 80 | 360 | 0.0 | 4.0 | 0.00 | 0.66 | 0.38 | 45 | 1013.0 |
| 20260831010004 | 81 | 360 | 1.0 | 6.0 | 0.00 | 0.66 | 0.38 | 44 | 1012.9 |
| 20260831001501 | 82 | 360 | 3.0 | 10.0 | 0.00 | 0.66 | 0.38 | 42 | 1013.0 |
| 20260831000004 | 83 | 360 | 1.0 | 6.0 | 0.00 | 0.66 | 0.38 | 39 | 1013.2 |
| 20260830234500 | 84 | 360 | 2.0 | 8.0 | 0.00 | 0.68 | 0.38 | 39 | 1013.3 |
| 20260830233003 | 84 | 360 | 2.0 | 9.0 | 0.00 | 0.68 | 0.38 | 39 | 1013.4 |
| 20260830230004 | 83 | 360 | 1.0 | 8.0 | 0.00 | 0.68 | 0.38 | 43 | 1013.5 |
| 20260830224500 | 83 | 360 | 2.0 | 10.0 | 0.00 | 0.74 | 0.38 | 44 | 1013.8 |
| 20260830223002 | 84 | 360 | 2.0 | 11.0 | 0.00 | 0.74 | 0.38 | 43 | 1014.0 |
| 20260830220003 | 84 | 360 | 2.0 | 10.0 | 0.00 | 0.74 | 0.38 | 44 | 1014.4 |
| 20260830211508 | 82 | 360 | 3.0 | 12.0 | 0.00 | 0.82 | 0.38 | 45 | 1015.1 |
| 20260830210011 | 83 | 360 | 2.0 | 8.0 | 0.00 | 0.82 | 0.38 | 45 | 1015.3 |
| 20260830203010 | 80 | 360 | 2.0 | 5.0 | 0.00 | 0.82 | 0.38 | 50 | 1015.8 |
| 20260830201509 | 80 | 360 | 2.0 | 7.0 | 0.00 | 0.82 | 0.38 | 49 | 1016.1 |
| 20260830200012 | 81 | 360 | 2.0 | 7.0 | 0.00 | 0.82 | 0.38 | 48 | 1016.1 |
| 20260830193009 | 80 | 360 | 1.0 | 7.0 | 0.00 | 0.82 | 0.38 | 47 | 1016.4 |
| 20260830191508 | 80 | 360 | 2.0 | 8.0 | 0.00 | 0.82 | 0.38 | 46 | 1016.7 |
| 20260830190009 | 80 | 360 | 1.0 | 6.0 | 0.00 | 0.82 | 0.38 | 47 | 1016.8 |
| 20260830184507 | 79 | 360 | 2.0 | 7.0 | 0.00 | 0.82 | 0.38 | 48 | 1017.0 |
| 20260830183008 | 79 | 360 | 2.0 | 8.0 | 0.00 | 0.82 | 0.38 | 48 | 1017.2 |
| 20260830181507 | 79 | 360 | 1.0 | 5.0 | 0.00 | 0.82 | 0.38 | 52 | 1017.3 |
| 20260830180010 | 77 | 360 | 2.0 | 8.0 | 0.00 | 0.82 | 0.38 | 52 | 1017.4 |
| 20260830174507 | 76 | 167 | 2.0 | 9.0 | 0.00 | 0.82 | 0.38 | 52 | 1017.4 |
| 20260830173008 | 76 | 360 | 2.0 | 7.0 | 0.00 | 0.82 | 0.38 | 54 | 1017.4 |
| 20260830170009 | 74 | 171 | 2.0 | 8.0 | 0.00 | 0.82 | 0.38 | 56 | 1017.5 |
| 20260830164507 | 73 | 360 | 1.0 | 5.0 | 0.00 | 0.82 | 0.38 | 58 | 1017.5 |
| 20260830163008 | 73 | 360 | 1.0 | 3.0 | 0.00 | 0.82 | 0.38 | 57 | 1017.4 |
| 20260830161507 | 71 | 360 | 0.0 | 3.0 | 0.00 | 0.82 | 0.38 | 65 | 1017.3 |
| 20260830154507 | 68 | 333 | 0.0 | 0.0 | 0.00 | 0.82 | 0.38 | 66 | 1017.5 |
| 20260830153009 | 67 | 360 | 0.0 | 0.0 | 0.00 | 0.82 | 0.38 | 74 | 1017.4 |
| 20260830151507 | 67 | 360 | 0.0 | 0.0 | 0.00 | 0.82 | 0.38 | 76 | 1017.4 |
| 20260830150010 | 66 | 360 | 0.0 | 0.0 | 0.00 | 0.82 | 0.38 | 75 | 1017.2 |
| 20260830143008 | 66 | 360 | 0.0 | 0.0 | 0.00 | 0.82 | 0.38 | 73 | 1017.0 |
| 20260830140009 | 65 | 360 | 0.0 | 0.0 | 0.00 | 0.82 | 0.38 | 71 | 1016.7 |
| 20260830134507 | 64 | 360 | 0.0 | 3.0 | 0.00 | 0.82 | 0.38 | 71 | 1016.4 |
| 20260830133008 | 64 | 79 | 1.0 | 5.0 | 0.00 | 0.82 | 0.38 | 73 | 1016.5 |
| 20260830131508 | 63 | 360 | 2.0 | 6.0 | 0.00 | 0.82 | 0.38 | 75 | 1016.3 |
| 20260830121507 | 62 | 58 | 0.0 | 0.0 | 0.00 | 0.82 | 0.38 | 77 | 1015.4 |
| 20260830120009 | 62 | 52 | 0.0 | 3.0 | 0.00 | 0.82 | 0.38 | 78 | 1015.3 |
| 20260830114507 | 61 | 53 | 2.0 | 5.0 | 0.00 | 0.82 | 0.38 | 81 | 1015.4 |
| 20260830113008 | 61 | 61 | 2.0 | 4.0 | 0.00 | 0.82 | 0.38 | 84 | 1015.4 |
| 20260830111507 | 60 | 25 | 3.0 | 5.0 | 0.00 | 0.82 | 0.38 | 87 | 1015.4 |
| 20260830110010 | 60 | 360 | 1.0 | 4.0 | 0.00 | 0.82 | 0.38 | 90 | 1015.5 |
| 20260830104507 | 60 | 360 | 0.0 | 0.0 | 0.01 | 0.82 | 0.38 | 89 | 1015.6 |
| 20260830103008 | 61 | 360 | 0.0 | 0.0 | 0.02 | 0.82 | 0.38 | 88 | 1015.8 |
| 20260830101509 | 62 | 360 | 0.0 | 0.0 | 0.02 | 0.82 | 0.38 | 86 | 1015.6 |
| 20260830100009 | 62 | 360 | 3.0 | 10.0 | 0.02 | 0.82 | 0.38 | 86 | 1015.3 |
| 20260830094507 | 62 | 360 | 6.0 | 13.0 | 0.01 | 0.81 | 0.37 | 88 | 1014.4 |
| 20260830093008 | 61 | 360 | 3.0 | 8.0 | 0.00 | 0.80 | 0.36 | 92 | 1016.0 |
| 20260830091507 | 61 | 360 | 1.0 | 5.0 | 0.00 | 0.80 | 0.36 | 92 | 1016.8 |
| 20260830090009 | 61 | 360 | 2.0 | 4.0 | 0.00 | 0.80 | 0.36 | 92 | 1016.4 |
| 20260830084507 | 61 | 360 | 1.0 | 4.0 | 0.01 | 0.80 | 0.36 | 93 | 1016.1 |
| 20260830083008 | 61 | 360 | 0.0 | 3.0 | 0.02 | 0.80 | 0.36 | 92 | 1016.1 |
| 20260830081507 | 61 | 360 | 1.0 | 6.0 | 0.27 | 0.80 | 0.36 | 92 | 1016.0 |
| 20260830080010 | 61 | 360 | 4.0 | 8.0 | 0.35 | 0.79 | 0.35 | 92 | 1016.2 |
| 20260830074507 | 61 | 360 | 3.0 | 7.0 | 0.35 | 0.79 | 0.35 | 91 | 1017.2 |
| 20260830071507 | 62 | 360 | 1.0 | 6.0 | 0.10 | 0.53 | 0.09 | 91 | 1017.9 |
| 20260830070011 | 62 | 332 | 0.0 | 4.0 | 0.11 | 0.44 | 0.00 | 88 | 1017.5 |
| 20260830063008 | 63 | 360 | 1.0 | 4.0 | 0.24 | 0.44 | 0.44 | 87 | 1017.0 |
| 20260830061507 | 63 | 360 | 3.0 | 10.0 | 0.27 | 0.43 | 0.43 | 87 | 1016.8 |
| 20260830060010 | 64 | 57 | 2.0 | 5.0 | 0.17 | 0.33 | 0.33 | 87 | 1016.8 |
| 20260830054506 | 65 | 62 | 3.0 | 9.0 | 0.15 | 0.31 | 0.31 | 82 | 1016.6 |
| 20260830053008 | 0 | 148 | 1.0 | 4.0 | 0.04 | 0.20 | 0.20 | 72 | 1016.6 |
| 20260830051507 | 72 | 360 | 1.0 | 4.0 | 0.00 | 0.16 | 0.16 | 59 | 1015.4 |
| 20260830044507 | 73 | 360 | 2.0 | 10.0 | 0.00 | 0.16 | 0.16 | 54 | 1015.7 |
| 20260830043008 | 73 | 360 | 0.0 | 0.0 | 0.00 | 0.16 | 0.16 | 48 | 1015.5 |